Year,Month,Day,Hour,Minute,Value (Times are PST for windgust in km/hr)
2015,12,14,00,00,22.50
2015,12,14,00,01,24.20
2015,12,14,00,02,16.10
2015,12,14,00,03,16.10
2015,12,14,00,04,20.90
2015,12,14,00,05,17.70
2015,12,14,00,06,12.90
2015,12,14,00,07,19.30
2015,12,14,00,08,16.10
2015,12,14,00,09,17.70
2015,12,14,00,10,12.90
2015,12,14,00,11,27.40
2015,12,14,00,12,19.30
2015,12,14,00,13,22.50
2015,12,14,00,14,17.70
2015,12,14,00,15,14.50
2015,12,14,00,16,14.50
2015,12,14,00,17,17.70
2015,12,14,00,18,17.70
2015,12,14,00,19,11.30
2015,12,14,00,20,20.90
2015,12,14,00,21,19.30
2015,12,14,00,22,14.50
2015,12,14,00,23,17.70
2015,12,14,00,24,14.50
2015,12,14,00,25,22.50
2015,12,14,00,26,16.10
2015,12,14,00,27,14.50
2015,12,14,00,28,17.70
2015,12,14,00,29,19.30
2015,12,14,00,30,16.10
2015,12,14,00,31,11.30
2015,12,14,00,32,12.90
2015,12,14,00,33,16.10
2015,12,14,00,34,20.90
2015,12,14,00,35,9.60
2015,12,14,00,36,17.70
2015,12,14,00,37,12.90
2015,12,14,00,38,11.30
2015,12,14,00,39,17.70
2015,12,14,00,40,16.10
2015,12,14,00,41,12.90
2015,12,14,00,42,12.90
2015,12,14,00,43,14.50
2015,12,14,00,44,11.30
2015,12,14,00,45,19.30
2015,12,14,00,46,11.30
2015,12,14,00,47,17.70
2015,12,14,00,48,16.10
2015,12,14,00,49,14.50
2015,12,14,00,50,12.90
2015,12,14,00,51,25.70
2015,12,14,00,52,17.70
2015,12,14,00,53,20.90
2015,12,14,00,54,16.10
2015,12,14,00,55,16.10
2015,12,14,00,56,11.30
2015,12,14,00,57,6.40
2015,12,14,00,58,9.60
2015,12,14,00,59,8.10
2015,12,14,01,00,14.50
2015,12,14,01,01,14.50
2015,12,14,01,02,11.30
2015,12,14,01,03,8.10
2015,12,14,01,04,6.40
2015,12,14,01,05,8.10
2015,12,14,01,06,9.60
2015,12,14,01,07,9.60
2015,12,14,01,08,8.10
2015,12,14,01,09,8.10
2015,12,14,01,10,9.60
2015,12,14,01,11,9.60
2015,12,14,01,12,17.70
2015,12,14,01,13,9.60
2015,12,14,01,14,8.10
2015,12,14,01,15,8.10
2015,12,14,01,16,9.60
2015,12,14,01,17,8.10
2015,12,14,01,18,9.60
2015,12,14,01,19,9.60
2015,12,14,01,20,11.30
2015,12,14,01,21,12.90
2015,12,14,01,22,4.80
2015,12,14,01,23,8.10
2015,12,14,01,24,8.10
2015,12,14,01,25,12.90
2015,12,14,01,26,11.30
2015,12,14,01,27,8.10
2015,12,14,01,28,9.60
2015,12,14,01,29,11.30
2015,12,14,01,30,12.90
2015,12,14,01,31,11.30
2015,12,14,01,32,8.10
2015,12,14,01,33,8.10
2015,12,14,01,34,16.10
2015,12,14,01,35,6.40
2015,12,14,01,36,8.10
2015,12,14,01,37,9.60
2015,12,14,01,38,11.30
2015,12,14,01,39,12.90
2015,12,14,01,40,12.90
2015,12,14,01,41,9.60
2015,12,14,01,42,8.10
2015,12,14,01,43,8.10
2015,12,14,01,44,11.30
2015,12,14,01,45,9.60
2015,12,14,01,46,8.10
2015,12,14,01,47,9.60
2015,12,14,01,48,9.60
2015,12,14,01,49,12.90
2015,12,14,01,50,16.10
2015,12,14,01,51,17.70
2015,12,14,01,52,11.30
2015,12,14,01,53,9.60
2015,12,14,01,54,8.10
2015,12,14,01,55,6.40
2015,12,14,01,56,8.10
2015,12,14,01,57,8.10
2015,12,14,01,58,12.90
2015,12,14,01,59,11.30
2015,12,14,02,00,4.80
2015,12,14,02,01,9.60
2015,12,14,02,02,8.10
2015,12,14,02,03,8.10
2015,12,14,02,04,9.60
2015,12,14,02,05,12.90
2015,12,14,02,06,11.30
2015,12,14,02,07,11.30
2015,12,14,02,08,8.10
2015,12,14,02,09,14.50
2015,12,14,02,10,9.60
2015,12,14,02,11,9.60
2015,12,14,02,12,12.90
2015,12,14,02,13,8.10
2015,12,14,02,14,12.90
2015,12,14,02,15,8.10
2015,12,14,02,16,12.90
2015,12,14,02,17,9.60
2015,12,14,02,18,9.60
2015,12,14,02,19,9.60
2015,12,14,02,20,12.90
2015,12,14,02,21,12.90
2015,12,14,02,22,9.60
2015,12,14,02,23,6.40
2015,12,14,02,24,12.90
2015,12,14,02,25,12.90
2015,12,14,02,26,6.40
2015,12,14,02,27,6.40
2015,12,14,02,28,6.40
2015,12,14,02,29,8.10
2015,12,14,02,30,9.60
2015,12,14,02,31,8.10
2015,12,14,02,32,8.10
2015,12,14,02,33,8.10
2015,12,14,02,34,8.10
2015,12,14,02,35,9.60
2015,12,14,02,36,19.30
2015,12,14,02,37,16.10
2015,12,14,02,38,11.30
2015,12,14,02,39,8.10
2015,12,14,02,40,6.40
2015,12,14,02,41,12.90
2015,12,14,02,42,9.60
2015,12,14,02,43,8.10
2015,12,14,02,44,9.60
2015,12,14,02,45,8.10
2015,12,14,02,46,8.10
2015,12,14,02,47,9.60
2015,12,14,02,48,6.40
2015,12,14,02,49,9.60
2015,12,14,02,50,9.60
2015,12,14,02,51,9.60
2015,12,14,02,52,14.50
2015,12,14,02,53,11.30
2015,12,14,02,54,9.60
2015,12,14,02,55,8.10
2015,12,14,02,56,6.40
2015,12,14,02,57,6.40
2015,12,14,02,58,8.10
2015,12,14,02,59,9.60
2015,12,14,03,00,9.60
2015,12,14,03,01,8.10
2015,12,14,03,02,6.40
2015,12,14,03,03,8.10
2015,12,14,03,04,6.40
2015,12,14,03,05,6.40
2015,12,14,03,06,11.30
2015,12,14,03,07,8.10
2015,12,14,03,08,11.30
2015,12,14,03,09,9.60
2015,12,14,03,10,8.10
2015,12,14,03,11,8.10
2015,12,14,03,12,6.40
2015,12,14,03,13,11.30
2015,12,14,03,14,11.30
2015,12,14,03,15,8.10
2015,12,14,03,16,8.10
2015,12,14,03,17,9.60
2015,12,14,03,18,6.40
2015,12,14,03,19,4.80
2015,12,14,03,20,9.60
2015,12,14,03,21,8.10
2015,12,14,03,22,6.40
2015,12,14,03,23,9.60
2015,12,14,03,24,8.10
2015,12,14,03,25,9.60
2015,12,14,03,26,8.10
2015,12,14,03,27,3.20
2015,12,14,03,28,4.80
2015,12,14,03,29,6.40
2015,12,14,03,30,6.40
2015,12,14,03,31,9.60
2015,12,14,03,32,8.10
2015,12,14,03,33,6.40
2015,12,14,03,34,6.40
2015,12,14,03,35,6.40
2015,12,14,03,36,8.10
2015,12,14,03,37,9.60
2015,12,14,03,38,6.40
2015,12,14,03,39,9.60
2015,12,14,03,40,6.40
2015,12,14,03,41,12.90
2015,12,14,03,42,8.10
2015,12,14,03,43,6.40
2015,12,14,03,44,8.10
2015,12,14,03,45,8.10
2015,12,14,03,46,8.10
2015,12,14,03,47,6.40
2015,12,14,03,48,6.40
2015,12,14,03,49,6.40
2015,12,14,03,50,6.40
2015,12,14,03,51,6.40
2015,12,14,03,52,4.80
2015,12,14,03,53,6.40
2015,12,14,03,54,4.80
2015,12,14,03,55,8.10
2015,12,14,03,56,6.40
2015,12,14,03,57,4.80
2015,12,14,03,58,6.40
2015,12,14,03,59,6.40
2015,12,14,04,00,3.20
2015,12,14,04,01,4.80
2015,12,14,04,02,4.80
2015,12,14,04,03,3.20
2015,12,14,04,04,3.20
2015,12,14,04,05,6.40
2015,12,14,04,06,6.40
2015,12,14,04,07,4.80
2015,12,14,04,08,3.20
2015,12,14,04,09,9.60
2015,12,14,04,10,9.60
2015,12,14,04,11,4.80
2015,12,14,04,12,4.80
2015,12,14,04,13,4.80
2015,12,14,04,14,4.80
2015,12,14,04,15,6.40
2015,12,14,04,16,6.40
2015,12,14,04,17,8.10
2015,12,14,04,18,6.40
2015,12,14,04,19,8.10
2015,12,14,04,20,6.40
2015,12,14,04,21,6.40
2015,12,14,04,22,4.80
2015,12,14,04,23,8.10
2015,12,14,04,24,4.80
2015,12,14,04,25,6.40
2015,12,14,04,26,6.40
2015,12,14,04,27,4.80
2015,12,14,04,28,3.20
2015,12,14,04,29,4.80
2015,12,14,04,30,6.40
2015,12,14,04,31,8.10
2015,12,14,04,32,6.40
2015,12,14,04,33,6.40
2015,12,14,04,34,8.10
2015,12,14,04,35,8.10
2015,12,14,04,36,6.40
2015,12,14,04,37,6.40
2015,12,14,04,38,4.80
2015,12,14,04,39,4.80
2015,12,14,04,40,8.10
2015,12,14,04,41,6.40
2015,12,14,04,42,6.40
2015,12,14,04,43,6.40
2015,12,14,04,44,9.60
2015,12,14,04,45,8.10
2015,12,14,04,46,8.10
2015,12,14,04,47,6.40
2015,12,14,04,48,8.10
2015,12,14,04,49,6.40
2015,12,14,04,50,4.80
2015,12,14,04,51,4.80
2015,12,14,04,52,6.40
2015,12,14,04,53,6.40
2015,12,14,04,54,6.40
2015,12,14,04,55,4.80
2015,12,14,04,56,6.40
2015,12,14,04,57,6.40
2015,12,14,04,58,6.40
2015,12,14,04,59,4.80
2015,12,14,05,00,9.60
2015,12,14,05,01,6.40
2015,12,14,05,02,6.40
2015,12,14,05,03,8.10
2015,12,14,05,04,6.40
2015,12,14,05,05,6.40
2015,12,14,05,06,9.60
2015,12,14,05,07,6.40
2015,12,14,05,08,9.60
2015,12,14,05,09,6.40
2015,12,14,05,10,4.80
2015,12,14,05,11,8.10
2015,12,14,05,12,6.40
2015,12,14,05,13,6.40
2015,12,14,05,14,4.80
2015,12,14,05,15,6.40
2015,12,14,05,16,4.80
2015,12,14,05,17,3.20
2015,12,14,05,18,4.80
2015,12,14,05,19,4.80
2015,12,14,05,20,4.80
2015,12,14,05,21,4.80
2015,12,14,05,22,4.80
2015,12,14,05,23,3.20
2015,12,14,05,24,4.80
2015,12,14,05,25,6.40
2015,12,14,05,26,4.80
2015,12,14,05,27,4.80
2015,12,14,05,28,4.80
2015,12,14,05,29,4.80
2015,12,14,05,30,8.10
2015,12,14,05,31,4.80
2015,12,14,05,32,6.40
2015,12,14,05,33,3.20
2015,12,14,05,34,3.20
2015,12,14,05,35,1.60
2015,12,14,05,36,3.20
2015,12,14,05,37,3.20
2015,12,14,05,38,1.60
2015,12,14,05,39,3.20
2015,12,14,05,40,1.60
2015,12,14,05,44,3.20
2015,12,14,05,45,3.20
2015,12,14,05,46,3.20
2015,12,14,05,48,1.60
2015,12,14,05,55,1.60
2015,12,14,05,56,1.60
2015,12,14,05,57,1.60
2015,12,14,05,58,1.60
2015,12,14,06,00,1.60
2015,12,14,06,03,1.60
2015,12,14,06,04,1.60
2015,12,14,06,05,3.20
2015,12,14,06,06,1.60
2015,12,14,06,07,3.20
2015,12,14,06,08,3.20
2015,12,14,06,09,1.60
2015,12,14,06,11,1.60
2015,12,14,06,12,1.60
2015,12,14,06,14,1.60
2015,12,14,06,15,1.60
2015,12,14,06,16,1.60
2015,12,14,06,17,1.60
2015,12,14,06,18,1.60
2015,12,14,06,19,1.60
2015,12,14,06,20,1.60
2015,12,14,06,21,1.60
2015,12,14,06,22,1.60
2015,12,14,06,23,1.60
2015,12,14,06,31,1.60
2015,12,14,06,32,1.60
2015,12,14,06,33,1.60
2015,12,14,06,34,1.60
2015,12,14,06,35,3.20
2015,12,14,06,36,3.20
2015,12,14,06,37,3.20
2015,12,14,06,38,3.20
2015,12,14,06,39,1.60
2015,12,14,06,40,1.60
2015,12,14,06,41,3.20
2015,12,14,06,42,3.20
2015,12,14,06,43,3.20
2015,12,14,06,44,1.60
2015,12,14,06,45,1.60
2015,12,14,06,46,1.60
2015,12,14,06,47,3.20
2015,12,14,06,48,1.60
2015,12,14,06,49,3.20
2015,12,14,06,51,1.60
2015,12,14,07,08,3.20
2015,12,14,07,09,3.20
2015,12,14,07,10,3.20
2015,12,14,07,16,1.60
2015,12,14,07,17,1.60
2015,12,14,07,18,1.60
2015,12,14,07,26,1.60
2015,12,14,07,27,1.60
2015,12,14,07,33,1.60
2015,12,14,07,34,1.60
2015,12,14,07,37,1.60
2015,12,14,07,44,1.60
2015,12,14,07,45,1.60
2015,12,14,07,46,1.60
2015,12,14,07,47,1.60
2015,12,14,07,48,1.60
2015,12,14,07,49,3.20
2015,12,14,07,50,3.20
2015,12,14,07,51,3.20
2015,12,14,07,54,1.60
2015,12,14,07,55,1.60
2015,12,14,07,56,1.60
2015,12,14,07,57,1.60
2015,12,14,07,58,1.60
2015,12,14,07,59,1.60
2015,12,14,08,00,1.60
2015,12,14,08,01,1.60
2015,12,14,08,02,1.60
2015,12,14,08,03,1.60
2015,12,14,08,04,1.60
2015,12,14,08,05,3.20
2015,12,14,08,06,3.20
2015,12,14,08,07,3.20
2015,12,14,08,08,1.60
2015,12,14,08,09,3.20
2015,12,14,08,10,3.20
2015,12,14,08,11,3.20
2015,12,14,08,12,3.20
2015,12,14,08,13,3.20
2015,12,14,08,14,1.60
2015,12,14,08,15,1.60
2015,12,14,08,16,1.60
2015,12,14,08,17,1.60
2015,12,14,08,18,3.20
2015,12,14,08,19,3.20
2015,12,14,08,20,3.20
2015,12,14,08,21,1.60
2015,12,14,08,22,1.60
2015,12,14,08,23,3.20
2015,12,14,08,24,3.20
2015,12,14,08,25,1.60
2015,12,14,08,28,1.60
2015,12,14,08,29,1.60
2015,12,14,08,39,1.60
2015,12,14,08,40,1.60
2015,12,14,08,41,1.60
2015,12,14,08,42,1.60
2015,12,14,08,43,1.60
2015,12,14,08,52,1.60
2015,12,14,08,53,1.60
2015,12,14,08,57,1.60
2015,12,14,08,58,1.60
2015,12,14,08,59,3.20
2015,12,14,09,00,3.20
2015,12,14,09,01,1.60
2015,12,14,09,02,1.60
2015,12,14,09,03,1.60
2015,12,14,09,13,1.60
2015,12,14,09,19,1.60
2015,12,14,09,24,1.60
2015,12,14,09,25,3.20
2015,12,14,09,26,3.20
2015,12,14,09,27,3.20
2015,12,14,09,28,3.20
2015,12,14,09,29,3.20
2015,12,14,09,30,1.60
2015,12,14,09,55,1.60
2015,12,14,09,59,1.60
2015,12,14,10,00,1.60
2015,12,14,10,01,1.60
2015,12,14,10,02,1.60
2015,12,14,10,03,3.20
2015,12,14,10,04,4.80
2015,12,14,10,05,3.20
2015,12,14,10,06,4.80
2015,12,14,10,07,3.20
2015,12,14,10,08,3.20
2015,12,14,10,09,3.20
2015,12,14,10,10,3.20
2015,12,14,10,11,3.20
2015,12,14,10,12,1.60
2015,12,14,10,15,1.60
2015,12,14,10,16,3.20
2015,12,14,10,17,3.20
2015,12,14,10,18,3.20
2015,12,14,10,19,1.60
2015,12,14,10,20,1.60
2015,12,14,10,21,1.60
2015,12,14,10,22,1.60
2015,12,14,10,23,1.60
2015,12,14,10,25,3.20
2015,12,14,10,26,4.80
2015,12,14,10,27,4.80
2015,12,14,10,28,3.20
2015,12,14,10,29,3.20
2015,12,14,10,30,3.20
2015,12,14,10,31,1.60
2015,12,14,10,32,3.20
2015,12,14,10,33,3.20
2015,12,14,10,34,1.60
2015,12,14,10,35,3.20
2015,12,14,10,36,3.20
2015,12,14,10,37,3.20
2015,12,14,10,38,3.20
2015,12,14,10,39,3.20
2015,12,14,10,40,3.20
2015,12,14,10,41,1.60
2015,12,14,10,42,3.20
2015,12,14,10,43,1.60
2015,12,14,10,44,4.80
2015,12,14,10,45,4.80
2015,12,14,10,46,4.80
2015,12,14,10,47,4.80
2015,12,14,10,48,4.80
2015,12,14,10,49,4.80
2015,12,14,10,50,6.40
2015,12,14,10,51,4.80
2015,12,14,10,52,6.40
2015,12,14,10,53,4.80
2015,12,14,10,54,4.80
2015,12,14,10,55,4.80
2015,12,14,10,56,3.20
2015,12,14,10,57,3.20
2015,12,14,10,58,6.40
2015,12,14,10,59,4.80
2015,12,14,11,00,3.20
2015,12,14,11,01,3.20
2015,12,14,11,02,3.20
2015,12,14,11,03,3.20
2015,12,14,11,04,6.40
2015,12,14,11,05,4.80
2015,12,14,11,06,8.10
2015,12,14,11,07,3.20
2015,12,14,11,08,1.60
2015,12,14,11,09,1.60
2015,12,14,11,10,4.80
2015,12,14,11,11,6.40
2015,12,14,11,12,4.80
2015,12,14,11,13,3.20
2015,12,14,11,14,4.80
2015,12,14,11,15,4.80
2015,12,14,11,16,1.60
2015,12,14,11,17,3.20
2015,12,14,11,18,1.60
2015,12,14,11,19,1.60
2015,12,14,11,20,1.60
2015,12,14,11,21,1.60
2015,12,14,11,22,1.60
2015,12,14,11,23,3.20
2015,12,14,11,24,4.80
2015,12,14,11,25,4.80
2015,12,14,11,26,4.80
2015,12,14,11,27,3.20
2015,12,14,11,28,1.60
2015,12,14,11,29,3.20
2015,12,14,11,30,4.80
2015,12,14,11,31,4.80
2015,12,14,11,32,3.20
2015,12,14,11,33,6.40
2015,12,14,11,34,4.80
2015,12,14,11,35,3.20
2015,12,14,11,36,3.20
2015,12,14,11,37,4.80
2015,12,14,11,38,4.80
2015,12,14,11,39,3.20
2015,12,14,11,40,3.20
2015,12,14,11,41,3.20
2015,12,14,11,42,3.20
2015,12,14,11,43,1.60
2015,12,14,11,44,1.60
2015,12,14,11,46,1.60
2015,12,14,11,47,3.20
2015,12,14,11,48,6.40
2015,12,14,11,49,8.10
2015,12,14,11,50,6.40
2015,12,14,11,51,6.40
2015,12,14,11,52,6.40
2015,12,14,11,53,6.40
2015,12,14,11,54,3.20
2015,12,14,11,55,4.80
2015,12,14,11,56,4.80
2015,12,14,11,57,4.80
2015,12,14,11,58,1.60
2015,12,14,11,59,1.60
2015,12,14,12,00,3.20
2015,12,14,12,01,4.80
2015,12,14,12,02,3.20
2015,12,14,12,03,4.80
2015,12,14,12,04,4.80
2015,12,14,12,05,3.20
2015,12,14,12,06,3.20
2015,12,14,12,07,3.20
2015,12,14,12,08,1.60
2015,12,14,12,10,1.60
2015,12,14,12,11,3.20
2015,12,14,12,12,4.80
2015,12,14,12,13,4.80
2015,12,14,12,14,4.80
2015,12,14,12,15,6.40
2015,12,14,12,16,4.80
2015,12,14,12,17,3.20
2015,12,14,12,18,3.20
2015,12,14,12,19,3.20
2015,12,14,12,20,3.20
2015,12,14,12,21,3.20
2015,12,14,12,22,3.20
2015,12,14,12,23,3.20
2015,12,14,12,24,3.20
2015,12,14,12,25,1.60
2015,12,14,12,26,1.60
2015,12,14,12,27,1.60
2015,12,14,12,28,3.20
2015,12,14,12,29,3.20
2015,12,14,12,30,3.20
2015,12,14,12,31,3.20
2015,12,14,12,32,3.20
2015,12,14,12,33,1.60
2015,12,14,12,34,1.60
2015,12,14,12,35,1.60
2015,12,14,12,36,1.60
2015,12,14,12,37,1.60
2015,12,14,12,39,3.20
2015,12,14,12,40,6.40
2015,12,14,12,41,1.60
2015,12,14,12,42,4.80
2015,12,14,12,43,4.80
2015,12,14,12,44,6.40
2015,12,14,12,45,6.40
2015,12,14,12,46,6.40
2015,12,14,12,47,4.80
2015,12,14,12,48,3.20
2015,12,14,12,49,3.20
2015,12,14,12,50,1.60
2015,12,14,12,51,4.80
2015,12,14,12,52,3.20
2015,12,14,12,53,4.80
2015,12,14,12,54,4.80
2015,12,14,12,55,4.80
2015,12,14,12,56,3.20
2015,12,14,12,57,4.80
2015,12,14,12,58,4.80
2015,12,14,12,59,1.60
2015,12,14,13,00,1.60
2015,12,14,13,01,4.80
2015,12,14,13,02,4.80
2015,12,14,13,03,4.80
2015,12,14,13,04,4.80
2015,12,14,13,05,4.80
2015,12,14,13,06,4.80
2015,12,14,13,07,3.20
2015,12,14,13,08,3.20
2015,12,14,13,09,1.60
2015,12,14,13,10,3.20
2015,12,14,13,11,3.20
2015,12,14,13,12,3.20
2015,12,14,13,13,6.40
2015,12,14,13,14,6.40
2015,12,14,13,15,6.40
2015,12,14,13,16,4.80
2015,12,14,13,17,4.80
2015,12,14,13,18,6.40
2015,12,14,13,19,6.40
2015,12,14,13,20,4.80
2015,12,14,13,21,3.20
2015,12,14,13,22,3.20
2015,12,14,13,23,3.20
2015,12,14,13,24,3.20
2015,12,14,13,25,4.80
2015,12,14,13,26,8.10
2015,12,14,13,27,8.10
2015,12,14,13,28,8.10
2015,12,14,13,29,8.10
2015,12,14,13,30,8.10
2015,12,14,13,31,9.60
2015,12,14,13,32,8.10
2015,12,14,13,33,9.60
2015,12,14,13,34,11.30
2015,12,14,13,35,8.10
2015,12,14,13,36,8.10
2015,12,14,13,37,8.10
2015,12,14,13,38,9.60
2015,12,14,13,39,9.60
2015,12,14,13,40,9.60
2015,12,14,13,41,8.10
2015,12,14,13,42,8.10
2015,12,14,13,43,8.10
2015,12,14,13,44,6.40
2015,12,14,13,45,4.80
2015,12,14,13,46,4.80
2015,12,14,13,47,4.80
2015,12,14,13,48,6.40
2015,12,14,13,49,8.10
2015,12,14,13,50,8.10
2015,12,14,13,51,6.40
2015,12,14,13,52,8.10
2015,12,14,13,53,11.30
2015,12,14,13,54,9.60
2015,12,14,13,55,6.40
2015,12,14,13,56,9.60
2015,12,14,13,57,9.60
2015,12,14,13,58,6.40
2015,12,14,13,59,8.10
2015,12,14,14,00,9.60
2015,12,14,14,01,8.10
2015,12,14,14,02,9.60
2015,12,14,14,03,11.30
2015,12,14,14,04,11.30
2015,12,14,14,05,9.60
2015,12,14,14,06,8.10
2015,12,14,14,07,6.40
2015,12,14,14,08,4.80
2015,12,14,14,09,3.20
2015,12,14,14,10,6.40
2015,12,14,14,11,8.10
2015,12,14,14,12,9.60
2015,12,14,14,13,4.80
2015,12,14,14,14,3.20
2015,12,14,14,15,6.40
2015,12,14,14,16,8.10
2015,12,14,14,17,6.40
2015,12,14,14,18,6.40
2015,12,14,14,19,6.40
2015,12,14,14,20,4.80
2015,12,14,14,21,6.40
2015,12,14,14,22,8.10
2015,12,14,14,23,6.40
2015,12,14,14,24,8.10
2015,12,14,14,25,4.80
2015,12,14,14,26,6.40
2015,12,14,14,27,6.40
2015,12,14,14,28,6.40
2015,12,14,14,29,6.40
2015,12,14,14,30,6.40
2015,12,14,14,31,4.80
2015,12,14,14,32,3.20
2015,12,14,14,33,6.40
2015,12,14,14,34,4.80
2015,12,14,14,35,4.80
2015,12,14,14,36,6.40
2015,12,14,14,37,8.10
2015,12,14,14,38,6.40
2015,12,14,14,39,6.40
2015,12,14,14,40,3.20
2015,12,14,14,41,3.20
2015,12,14,14,42,6.40
2015,12,14,14,43,3.20
2015,12,14,14,44,3.20
2015,12,14,14,45,3.20
2015,12,14,14,46,4.80
2015,12,14,14,47,3.20
2015,12,14,14,48,1.60
2015,12,14,14,49,1.60
2015,12,14,14,50,3.20
2015,12,14,14,51,1.60
2015,12,14,14,52,1.60
2015,12,14,14,53,4.80
2015,12,14,14,54,3.20
2015,12,14,14,55,3.20
2015,12,14,14,57,1.60
2015,12,14,14,58,3.20
2015,12,14,14,59,3.20
2015,12,14,15,00,3.20
2015,12,14,15,01,3.20
2015,12,14,15,02,3.20
2015,12,14,15,03,1.60
2015,12,14,15,04,1.60
2015,12,14,15,05,1.60
2015,12,14,15,06,1.60
2015,12,14,15,09,1.60
2015,12,14,15,10,3.20
2015,12,14,15,11,4.80
2015,12,14,15,12,3.20
2015,12,14,15,13,1.60
2015,12,14,15,14,1.60
2015,12,14,15,17,3.20
2015,12,14,15,18,1.60
2015,12,14,15,19,3.20
2015,12,14,15,20,1.60
2015,12,14,15,21,1.60
2015,12,14,15,22,1.60
2015,12,14,15,23,1.60
2015,12,14,15,24,3.20
2015,12,14,15,25,3.20
2015,12,14,15,26,1.60
2015,12,14,15,27,3.20
2015,12,14,15,29,1.60
2015,12,14,15,30,3.20
2015,12,14,15,31,3.20
2015,12,14,15,32,1.60
2015,12,14,15,33,3.20
2015,12,14,15,34,1.60
2015,12,14,15,35,1.60
2015,12,14,15,36,1.60
2015,12,14,15,37,3.20
2015,12,14,15,38,1.60
2015,12,14,15,39,1.60
2015,12,14,15,40,1.60
2015,12,14,15,42,1.60
2015,12,14,15,43,1.60
2015,12,14,15,46,1.60
2015,12,14,15,47,1.60
2015,12,14,15,48,3.20
2015,12,14,15,49,1.60
2015,12,14,15,50,1.60
2015,12,14,15,51,1.60
2015,12,14,15,52,1.60
2015,12,14,15,53,1.60
2015,12,14,15,55,1.60
2015,12,14,15,57,1.60
2015,12,14,15,59,1.60
2015,12,14,16,00,1.60
2015,12,14,16,01,1.60
2015,12,14,16,02,1.60
2015,12,14,16,03,1.60
2015,12,14,16,04,1.60
2015,12,14,16,05,1.60
2015,12,14,16,08,1.60
2015,12,14,16,09,1.60
2015,12,14,16,10,1.60
2015,12,14,16,11,3.20
2015,12,14,16,12,3.20
2015,12,14,16,13,3.20
2015,12,14,16,14,1.60
2015,12,14,16,15,1.60
2015,12,14,16,16,1.60
2015,12,14,16,17,1.60
2015,12,14,16,18,1.60
2015,12,14,16,36,1.60
2015,12,14,16,45,1.60
2015,12,14,16,46,1.60
2015,12,14,16,47,1.60
2015,12,14,16,48,1.60
2015,12,14,16,49,1.60
2015,12,14,16,52,1.60
2015,12,14,16,53,1.60
2015,12,14,16,54,1.60
2015,12,14,16,55,1.60
2015,12,14,16,56,3.20
2015,12,14,16,57,3.20
2015,12,14,16,58,3.20
2015,12,14,16,59,4.80
2015,12,14,17,00,4.80
2015,12,14,17,01,4.80
2015,12,14,17,02,4.80
2015,12,14,17,03,4.80
2015,12,14,17,04,4.80
2015,12,14,17,05,3.20
2015,12,14,17,06,1.60
2015,12,14,17,07,1.60
2015,12,14,17,08,3.20
2015,12,14,17,09,3.20
2015,12,14,17,10,3.20
2015,12,14,17,11,3.20
2015,12,14,17,12,1.60
2015,12,14,17,24,1.60
2015,12,14,17,25,1.60
2015,12,14,17,26,1.60
2015,12,14,17,29,1.60
2015,12,14,17,30,3.20
2015,12,14,17,31,3.20
2015,12,14,17,32,1.60
2015,12,14,17,33,1.60
2015,12,14,17,34,1.60
2015,12,14,17,35,1.60
2015,12,14,17,36,1.60
2015,12,14,17,39,1.60
2015,12,14,17,40,1.60
2015,12,14,17,41,3.20
2015,12,14,17,42,3.20
2015,12,14,17,43,3.20
2015,12,14,17,44,1.60
2015,12,14,17,45,1.60
2015,12,14,17,46,1.60
2015,12,14,17,47,1.60
2015,12,14,17,48,3.20
2015,12,14,17,49,3.20
2015,12,14,17,50,3.20
2015,12,14,17,51,3.20
2015,12,14,17,52,3.20
2015,12,14,17,53,4.80
2015,12,14,17,54,3.20
2015,12,14,17,55,3.20
2015,12,14,17,56,3.20
2015,12,14,17,57,3.20
2015,12,14,17,58,3.20
2015,12,14,17,59,3.20
2015,12,14,18,00,3.20
2015,12,14,18,01,3.20
2015,12,14,18,02,1.60
2015,12,14,18,03,3.20
2015,12,14,18,04,3.20
2015,12,14,18,05,3.20
2015,12,14,18,06,3.20
2015,12,14,18,07,3.20
2015,12,14,18,08,3.20
2015,12,14,18,09,3.20
2015,12,14,18,10,3.20
2015,12,14,18,11,1.60
2015,12,14,18,12,1.60
2015,12,14,18,13,1.60
2015,12,14,18,14,1.60
2015,12,14,18,15,1.60
2015,12,14,18,16,1.60
2015,12,14,18,17,1.60
2015,12,14,18,18,3.20
2015,12,14,18,19,4.80
2015,12,14,18,20,4.80
2015,12,14,18,21,3.20
2015,12,14,18,22,3.20
2015,12,14,18,23,3.20
2015,12,14,18,24,3.20
2015,12,14,18,25,3.20
2015,12,14,18,26,3.20
2015,12,14,18,27,3.20
2015,12,14,18,28,1.60
2015,12,14,18,29,4.80
2015,12,14,18,30,3.20
2015,12,14,18,31,3.20
2015,12,14,18,32,3.20
2015,12,14,18,33,1.60
2015,12,14,18,34,1.60
2015,12,14,18,35,1.60
2015,12,14,18,36,1.60
2015,12,14,18,37,3.20
2015,12,14,18,38,3.20
2015,12,14,18,39,3.20
2015,12,14,18,40,3.20
2015,12,14,18,41,3.20
2015,12,14,18,42,4.80
2015,12,14,18,43,3.20
2015,12,14,18,44,3.20
2015,12,14,18,45,3.20
2015,12,14,18,46,4.80
2015,12,14,18,47,4.80
2015,12,14,18,48,4.80
2015,12,14,18,49,4.80
2015,12,14,18,50,3.20
2015,12,14,18,51,3.20
2015,12,14,18,52,3.20
2015,12,14,18,53,3.20
2015,12,14,18,54,1.60
2015,12,14,18,55,1.60
2015,12,14,18,56,1.60
2015,12,14,18,58,1.60
2015,12,14,19,09,1.60
2015,12,14,19,10,1.60
2015,12,14,19,11,1.60
2015,12,14,20,08,1.60
2015,12,14,20,21,1.60
2015,12,14,20,22,3.20
2015,12,14,20,23,3.20
2015,12,14,20,24,3.20
2015,12,14,20,25,3.20
2015,12,14,20,26,3.20
2015,12,14,20,27,4.80
2015,12,14,20,28,1.60
2015,12,14,20,29,1.60
2015,12,14,20,30,1.60
2015,12,14,20,32,1.60
2015,12,14,20,33,1.60
2015,12,14,20,34,1.60
2015,12,14,20,35,1.60
2015,12,14,20,36,1.60
2015,12,14,20,39,1.60
2015,12,14,20,40,1.60
2015,12,14,20,45,1.60
2015,12,14,20,46,1.60
2015,12,14,20,47,1.60
2015,12,14,20,48,3.20
2015,12,14,20,49,3.20
2015,12,14,20,50,3.20
2015,12,14,20,51,1.60
2015,12,14,20,56,3.20
2015,12,14,20,57,3.20
2015,12,14,20,58,3.20
2015,12,14,20,59,4.80
2015,12,14,21,00,3.20
2015,12,14,21,01,3.20
2015,12,14,21,02,3.20
2015,12,14,21,03,1.60
2015,12,14,21,04,1.60
2015,12,14,21,05,1.60
2015,12,14,21,06,1.60
2015,12,14,21,09,1.60
2015,12,14,21,10,3.20
2015,12,14,21,11,3.20
2015,12,14,21,12,3.20
2015,12,14,21,13,3.20
2015,12,14,21,14,3.20
2015,12,14,21,15,3.20
2015,12,14,21,16,3.20
2015,12,14,21,17,1.60
2015,12,14,21,18,3.20
2015,12,14,21,19,3.20
2015,12,14,21,20,3.20
2015,12,14,21,21,1.60
2015,12,14,21,22,3.20
2015,12,14,21,23,1.60
2015,12,14,21,24,3.20
2015,12,14,21,25,4.80
2015,12,14,21,26,4.80
2015,12,14,21,27,3.20
2015,12,14,21,28,3.20
2015,12,14,21,29,3.20
2015,12,14,21,30,3.20
2015,12,14,21,31,3.20
2015,12,14,21,32,3.20
2015,12,14,21,33,4.80
2015,12,14,21,34,4.80
2015,12,14,21,35,4.80
2015,12,14,21,36,4.80
2015,12,14,21,37,3.20
2015,12,14,21,38,1.60
2015,12,14,21,39,1.60
2015,12,14,21,40,3.20
2015,12,14,21,41,3.20
2015,12,14,21,42,3.20
2015,12,14,21,43,4.80
2015,12,14,21,44,3.20
2015,12,14,21,45,3.20
2015,12,14,21,46,1.60
2015,12,14,21,47,3.20
2015,12,14,21,48,1.60
2015,12,14,21,49,3.20
2015,12,14,21,50,1.60
2015,12,14,21,51,1.60
2015,12,14,21,53,1.60
2015,12,14,21,54,3.20
2015,12,14,21,55,1.60
2015,12,14,21,56,3.20
2015,12,14,21,57,3.20
2015,12,14,21,58,3.20
2015,12,14,21,59,3.20
2015,12,14,22,01,1.60
2015,12,14,22,02,1.60
2015,12,14,22,03,1.60
2015,12,14,22,04,1.60
2015,12,14,22,05,1.60
2015,12,14,22,06,1.60
2015,12,14,22,11,1.60
2015,12,14,22,12,1.60
2015,12,14,22,13,3.20
2015,12,14,22,14,1.60
2015,12,14,22,15,3.20
2015,12,14,22,16,1.60
2015,12,14,22,17,3.20
2015,12,14,22,18,1.60
2015,12,14,22,19,1.60
2015,12,14,22,29,1.60
2015,12,14,22,30,1.60
2015,12,14,22,53,3.20
2015,12,14,22,54,3.20
2015,12,14,22,55,3.20
2015,12,14,22,56,3.20
2015,12,14,22,57,1.60
2015,12,14,22,58,1.60
2015,12,14,22,59,1.60
2015,12,14,23,00,3.20
2015,12,14,23,01,3.20
2015,12,14,23,02,1.60
2015,12,14,23,03,1.60
2015,12,14,23,04,3.20
2015,12,14,23,05,1.60
2015,12,14,23,06,1.60
2015,12,14,23,07,1.60
2015,12,14,23,08,1.60
2015,12,14,23,12,3.20
2015,12,14,23,13,3.20
2015,12,14,23,14,1.60
2015,12,14,23,17,3.20
2015,12,14,23,18,3.20
2015,12,14,23,19,3.20
2015,12,14,23,20,3.20
2015,12,14,23,21,3.20
2015,12,14,23,22,3.20
2015,12,14,23,23,3.20
2015,12,14,23,29,1.60
2015,12,14,23,30,1.60
2015,12,14,23,33,1.60
2015,12,14,23,34,1.60
2015,12,14,23,35,3.20
2015,12,14,23,36,3.20
2015,12,14,23,37,1.60